Flag for U.S.A. Weather past 2 weeks in Columbia, South Carolina, U.S.A.

Now
53 °F

Sunny.


Feels Like: 53 °F
Forecast: 37 / 66 °F
Wind: 3 mph from North

Location: Columbia Owens Downtown Airport


UV Index: 5 (Moderate)

Visibility: 10 mi


Pressure: 30.36 "Hg

Humidity: 39%

Dew point: 29 °F

Location of ColumbiaLocation

Historic Weather in Columbia

°F

Columbia temperature yesterday

Maximum temperature yesterday: 72 °F (at 2:53 PM)
Minimum temperature yesterday: 48 °F (at 11:53 PM)
Average temperature yesterday: 66 °F

Past Weeks' High & Low Weather Summary

 TemperatureHumidityPressure
High88 °F (Apr 2, 4:53 PM)93% (Apr 7, 2:53 PM)30.36 "Hg (Apr 7, 2:53 PM)
Low39 °F (Apr 16, 5:53 AM)9% (Apr 2, 3:53 PM)29.62 "Hg (Apr 15, 3:53 PM)
Average65 °F55%30.01 "Hg
* Reported Apr 1 7:53 PM — Apr 16 7:53 PM, Columbia, Weather by CustomWeather, © 2014

Note: Actual official high and low records may vary slightly from our data, if they occured in-between our weather recording intervals... More about our weather records

Advertising

Historic Weather Conditions — Data for Previous 24 hours

 ConditionsComfort  
Time TempWeatherWind HumidityBarometerVisibility
7:53 PM
Apr 16
55 °FSunny.3 mph34%30.33 "Hg10 mi
6:53 PM59 °FSunny.6 mph27%30.32 "Hg10 mi
5:53 PM60 °FSunny.6 mph24%30.31 "Hg10 mi
4:53 PM61 °FSunny.7 mph22%30.30 "Hg10 mi
3:53 PM59 °FSunny.5 mph25%30.31 "Hg10 mi
2:53 PM57 °FSunny.8 mph26%30.33 "Hg10 mi
1:53 PM55 °FSunny.5 mph25%30.34 "Hg10 mi
12:53 PM53 °FSunny.7 mph28%30.35 "Hg10 mi
11:53 AM51 °FSunny.8 mph31%30.36 "Hg10 mi
10:53 AM47 °FSunny.9 mph36%30.36 "Hg10 mi
9:53 AM45 °FSunny.7 mph40%30.35 "Hg10 mi
8:53 AM42 °FSunny.9 mph45%30.34 "Hg10 mi
7:53 AM39 °FSunny.7 mph53%30.31 "Hg10 mi
6:53 AM39 °FClear.5 mph53%30.27 "Hg10 mi
5:53 AM39 °FClear.6 mph55%30.24 "Hg10 mi
4:53 AM40 °FClear.3 mph58%30.19 "Hg10 mi
3:53 AM41 °FClear.6 mph58%30.18 "Hg10 mi
2:53 AM43 °FClear.3 mph58%30.14 "Hg10 mi
1:53 AM44 °FClear.5 mph55%30.11 "Hg10 mi
12:53 AM46 °FClear.6 mph56%30.08 "Hg10 mi
11:53 PM
Apr 15
48 °FClear.7 mph56%30.03 "Hg10 mi
10:53 PM51 °FPassing clouds.9 mph50%29.97 "Hg10 mi
9:53 PM56 °FOvercast.9 mph51%29.93 "Hg10 mi
Weather by CustomWeather, © 2014

See weather overview